Weather History for KEYW - April, 2012

Change the Weather History Date:

Wednesday, April 11, 2012

  Actual Average Record
Temperature  
Mean Temperature 76 °F 76 °F  
Max Temperature 81 °F 81 °F 89 °F (1933)
Min Temperature 71 °F 71 °F 59 °F (1987)
Degree Days  
Heating Degree Days 0 0  
Month to date heating degree days 0 0  
Since 1 July heating degree days 28 73  
Cooling Degree Days 11 11  
Month to date cooling degree days 138 114  
Year to date cooling degree days 981 724  
Growing Degree Days 26 (Base 50)    
Moisture  
Dew Point 61 °F    
Average Humidity 62    
Maximum Humidity 73    
Minimum Humidity 51    
Precipitation  
Precipitation 0.00 in 0.06 in 1.70 in (1984)
Month to date precipitation 0.57 0.74  
Year to date precipitation 7.36 6.32  
Snow  
Snow 0.00 in - - ()
Month to date snowfall 0.0  
Since 1 July snowfall 0.0  
Snow Depth 0.00 in    
Sea Level Pressure  
Sea Level Pressure 30.05 in    
Wind  
Wind Speed 4 mph (NNE)    
Max Wind Speed 10 mph    
Max Gust Speed 14 mph    
Visibility 10 miles    
Events      
T = Trace of Precipitation, MM = Missing Value Source: NWS Daily Summary

Daily Weather History Graph

Daily Weather History Graph

Search for Another Location

Airport or City:

Trip Planner

Search our weather history database for the weather conditions in past years. The results will help you decide how hot, cold, wet, or windy it might be!

Date:

Astronomy

Apr. 11, 2012 Rise Set
Actual Time 7:08 AM EDT 7:47 PM EDT
Civil Twilight 6:45 AM EDT 8:10 PM EDT
Nautical Twilight 6:18 AM EDT 8:38 PM EDT
Astronomical Twilight 5:50 AM EDT 9:05 PM EDT
Moon 12:17 AM EDT (4/11) 11:18 AM EDT (4/11)
Length of Visible Light 13h 25m
Length of Day
12h 39m
Waning Gibbous, 69% of the Moon is Illuminated
Apr 11
Waning Gibbous
Apr 13
Last Quarter
Apr 21
New
Apr 29
First Quarter
May 5
Full

Hourly Weather History & Observations

Time (EDT) Temp. Heat Index Dew Point Humidity Pressure Visibility Wind Dir Wind Speed Gust Speed Precip Events Conditions
12:53 AM 73.4 °F - 60.8 °F 65% 30.05 in 10.0 mi ENE 4.6 mph - N/A   Clear
1:53 AM 73.0 °F - 61.0 °F 66% 30.04 in 10.0 mi ENE 3.5 mph - N/A   Clear
2:53 AM 72.0 °F - 62.1 °F 71% 30.04 in 10.0 mi NE 3.5 mph - N/A   Clear
3:53 AM 71.1 °F - 61.0 °F 70% 30.03 in 10.0 mi East 3.5 mph - N/A   Clear
4:53 AM 73.9 °F - 59.0 °F 59% 30.01 in 10.0 mi SE 8.1 mph - N/A   Clear
5:53 AM 73.9 °F - 59.0 °F 59% 30.03 in 10.0 mi SSE 4.6 mph - N/A   Clear
6:53 AM 73.0 °F - 60.1 °F 64% 30.04 in 10.0 mi SE 3.5 mph - N/A   Clear
7:53 AM 73.0 °F - 61.0 °F 66% 30.06 in 10.0 mi Calm Calm - N/A   Clear
8:53 AM 77.0 °F - 61.0 °F 58% 30.08 in 10.0 mi Calm Calm - N/A   Clear
9:53 AM 79.0 °F - 61.0 °F 54% 30.09 in 10.0 mi Calm Calm - N/A   Clear
10:53 AM 78.1 °F - 61.0 °F 56% 30.09 in 10.0 mi Variable 3.5 mph - N/A   Partly Cloudy
11:53 AM 79.0 °F - 61.0 °F 54% 30.09 in 10.0 mi Variable 4.6 mph - N/A   Overcast
12:53 PM 78.1 °F - 60.1 °F 54% 30.07 in 10.0 mi Variable 4.6 mph - N/A   Scattered Clouds
1:53 PM 80.1 °F 81.1 °F 61.0 °F 52% 30.06 in 10.0 mi Calm Calm - N/A   Mostly Cloudy
2:53 PM 79.0 °F - 62.1 °F 56% 30.05 in 10.0 mi NW 4.6 mph - N/A   Mostly Cloudy
3:53 PM 78.1 °F - 60.1 °F 54% 30.03 in 10.0 mi Variable 3.5 mph - N/A   Scattered Clouds
4:53 PM 80.1 °F 80.9 °F 60.1 °F 50% 30.02 in 10.0 mi North 10.4 mph - N/A   Clear
5:53 PM 80.1 °F 80.9 °F 60.1 °F 50% 30.02 in 10.0 mi NNW 8.1 mph - N/A   Clear
6:53 PM 78.1 °F - 61.0 °F 56% 30.02 in 10.0 mi NNW 6.9 mph - N/A   Clear
7:53 PM 77.0 °F - 63.0 °F 62% 30.02 in 10.0 mi NNW 4.6 mph - N/A   Clear
8:53 PM 75.9 °F - 63.0 °F 64% 30.03 in 10.0 mi NNW 4.6 mph - N/A   Clear
9:53 PM 75.9 °F - 64.0 °F 67% 30.04 in 10.0 mi Calm Calm - N/A   Clear
10:53 PM 75.0 °F - 64.9 °F 71% 30.05 in 10.0 mi Calm Calm - N/A   Clear
11:53 PM 75.0 °F - 64.0 °F 69% 30.05 in 10.0 mi NNW 4.6 mph - N/A   Clear